TimeCDT,TemperatureF,Dew PointF,Humidity,Sea Level PressureIn,VisibilityMPH,Wind Direction,Wind SpeedMPH,Gust SpeedMPH,PrecipitationIn,Events,Conditions,WindDirDegrees,DateUTC
12:15 AM,44.6,21.2,39,29.88,10.0,SSW,11.5,-,N/A,,Clear,210,2012-10-08 05:15:00
12:35 AM,44.6,21.2,39,29.88,10.0,SW,10.4,-,N/A,,Clear,220,2012-10-08 05:35:00
12:55 AM,44.6,23.0,43,29.87,10.0,SW,10.4,-,N/A,,Clear,220,2012-10-08 05:55:00
1:15 AM,44.6,24.8,46,29.87,10.0,SW,11.5,-,N/A,,Clear,220,2012-10-08 06:15:00
1:35 AM,44.6,24.8,46,29.87,10.0,SW,10.4,-,N/A,,Clear,220,2012-10-08 06:35:00
1:55 AM,44.6,23.0,43,29.87,10.0,SW,10.4,-,N/A,,Clear,220,2012-10-08 06:55:00
2:15 AM,44.6,23.0,43,29.87,10.0,SSW,9.2,-,N/A,,Clear,210,2012-10-08 07:15:00
2:35 AM,44.6,23.0,43,29.86,10.0,SSW,9.2,-,N/A,,Clear,210,2012-10-08 07:35:00
2:55 AM,44.6,24.8,46,29.86,10.0,SW,10.4,-,N/A,,Clear,220,2012-10-08 07:55:00
3:15 AM,46.4,24.8,43,29.85,10.0,SSW,11.5,-,N/A,,Clear,210,2012-10-08 08:15:00
3:35 AM,46.4,24.8,43,29.84,10.0,SW,11.5,-,N/A,,Clear,220,2012-10-08 08:35:00
3:55 AM,46.4,24.8,43,29.84,10.0,SSW,11.5,-,N/A,,Clear,210,2012-10-08 08:55:00
4:15 AM,46.4,26.6,46,29.83,10.0,SSW,10.4,-,N/A,,Clear,210,2012-10-08 09:15:00
4:35 AM,46.4,26.6,46,29.83,10.0,SSW,10.4,-,N/A,,Clear,210,2012-10-08 09:35:00
4:55 AM,46.4,26.6,46,29.83,10.0,SSW,11.5,-,N/A,,Clear,210,2012-10-08 09:55:00
5:15 AM,46.4,26.6,46,29.83,10.0,SW,11.5,-,N/A,,Partly Cloudy,220,2012-10-08 10:15:00
5:35 AM,48.2,26.6,43,29.83,10.0,SSW,11.5,-,N/A,,Partly Cloudy,210,2012-10-08 10:35:00
5:55 AM,48.2,28.4,46,29.83,10.0,SW,11.5,-,N/A,,Scattered Clouds,220,2012-10-08 10:55:00
6:15 AM,48.2,28.4,46,29.81,10.0,SSW,12.7,-,N/A,,Mostly Cloudy,200,2012-10-08 11:15:00
6:35 AM,48.2,28.4,46,29.81,10.0,SSW,13.8,-,N/A,,Partly Cloudy,210,2012-10-08 11:35:00
6:55 AM,48.2,28.4,46,29.81,10.0,SW,12.7,-,N/A,,Mostly Cloudy,220,2012-10-08 11:55:00
7:15 AM,48.2,28.4,46,29.80,10.0,SSW,12.7,-,N/A,,Overcast,210,2012-10-08 12:15:00
7:35 AM,48.2,28.4,46,29.79,10.0,SSW,12.7,-,N/A,,Partly Cloudy,210,2012-10-08 12:35:00
7:55 AM,50.0,26.6,40,29.78,10.0,SSW,13.8,-,N/A,,Clear,210,2012-10-08 12:55:00
8:15 AM,50.0,26.6,40,29.79,10.0,SW,12.7,-,N/A,,Partly Cloudy,220,2012-10-08 13:15:00
8:35 AM,50.0,28.4,43,29.79,10.0,SW,11.5,-,N/A,,Partly Cloudy,230,2012-10-08 13:35:00
8:55 AM,51.8,28.4,41,29.79,10.0,SW,13.8,-,N/A,,Clear,220,2012-10-08 13:55:00
9:15 AM,51.8,28.4,41,29.79,10.0,SW,13.8,-,N/A,,Clear,220,2012-10-08 14:15:00
9:35 AM,53.6,28.4,38,29.78,10.0,SW,15.0,18.4,N/A,,Clear,220,2012-10-08 14:35:00
9:55 AM,53.6,28.4,38,29.78,10.0,SW,13.8,20.7,N/A,,Clear,220,2012-10-08 14:55:00
10:15 AM,55.4,28.4,36,29.77,10.0,SW,13.8,-,N/A,,Clear,220,2012-10-08 15:15:00
10:35 AM,57.2,28.4,33,29.76,10.0,SW,16.1,21.9,N/A,,Clear,220,2012-10-08 15:35:00
10:55 AM,59.0,28.4,31,29.76,10.0,SW,16.1,19.6,N/A,,Clear,220,2012-10-08 15:55:00
11:15 AM,60.8,28.4,29,29.76,10.0,SW,18.4,21.9,N/A,,Clear,230,2012-10-08 16:15:00
11:35 AM,60.8,26.6,27,29.76,10.0,SW,17.3,21.9,N/A,,Scattered Clouds,230,2012-10-08 16:35:00
11:55 AM,62.6,28.4,27,29.75,10.0,SW,16.1,-,N/A,,Partly Cloudy,220,2012-10-08 16:55:00
12:15 PM,62.6,28.4,27,29.74,10.0,SW,15.0,-,N/A,,Partly Cloudy,220,2012-10-08 17:15:00
12:55 PM,66.2,28.4,24,29.73,10.0,WSW,16.1,21.9,N/A,,Clear,250,2012-10-08 17:55:00
1:15 PM,69.8,28.4,21,29.72,10.0,West,16.1,23.0,N/A,,Clear,270,2012-10-08 18:15:00
1:35 PM,69.8,28.4,21,29.72,10.0,West,19.6,25.3,N/A,,Clear,270,2012-10-08 18:35:00
1:55 PM,69.8,28.4,21,29.71,10.0,West,16.1,20.7,N/A,,Clear,270,2012-10-08 18:55:00
2:15 PM,71.6,30.2,22,29.71,10.0,WNW,18.4,24.2,N/A,,Clear,290,2012-10-08 19:15:00
2:35 PM,71.6,32.0,23,29.71,10.0,West,19.6,26.5,N/A,,Clear,270,2012-10-08 19:35:00
2:55 PM,71.6,32.0,23,29.71,10.0,West,20.7,26.5,N/A,,Clear,260,2012-10-08 19:55:00
3:15 PM,71.6,33.8,25,29.71,10.0,West,19.6,27.6,N/A,,Clear,260,2012-10-08 20:15:00
3:35 PM,71.6,35.6,27,29.71,9.0,West,21.9,-,N/A,,Clear,280,2012-10-08 20:35:00
3:55 PM,71.6,33.8,25,29.71,8.0,WNW,20.7,29.9,N/A,,Clear,290,2012-10-08 20:55:00
4:15 PM,69.8,33.8,27,29.71,10.0,West,16.1,26.5,N/A,,Clear,280,2012-10-08 21:15:00
4:35 PM,69.8,33.8,27,29.71,10.0,West,20.7,26.5,N/A,,Clear,280,2012-10-08 21:35:00
4:55 PM,69.8,33.8,27,29.71,10.0,West,17.3,26.5,N/A,,Clear,270,2012-10-08 21:55:00
5:15 PM,69.8,35.6,28,29.72,8.0,West,11.5,20.7,N/A,,Scattered Clouds,270,2012-10-08 22:15:00
5:35 PM,68.0,37.4,33,29.72,9.0,WNW,16.1,-,N/A,,Partly Cloudy,300,2012-10-08 22:35:00
5:55 PM,68.0,35.6,30,29.73,9.0,WNW,13.8,-,N/A,,Clear,300,2012-10-08 22:55:00
6:15 PM,66.2,35.6,32,29.74,10.0,NW,16.1,-,N/A,,Clear,310,2012-10-08 23:15:00
6:35 PM,66.2,35.6,32,29.75,10.0,NW,17.3,-,N/A,,Clear,320,2012-10-08 23:35:00
6:55 PM,64.4,37.4,37,29.76,10.0,NW,19.6,25.3,N/A,,Clear,320,2012-10-08 23:55:00
7:15 PM,62.6,37.4,39,29.77,10.0,NW,17.3,21.9,N/A,,Clear,320,2012-10-09 00:15:00
7:35 PM,62.6,39.2,42,29.77,10.0,NW,17.3,-,N/A,,Clear,310,2012-10-09 00:35:00
7:55 PM,60.8,39.2,45,29.78,10.0,NW,11.5,-,N/A,,Clear,320,2012-10-09 00:55:00
8:15 PM,60.8,39.2,45,29.78,10.0,NNW,15.0,-,N/A,,Clear,330,2012-10-09 01:15:00
8:35 PM,60.8,39.2,45,29.79,10.0,NNW,11.5,-,N/A,,Clear,330,2012-10-09 01:35:00
9:15 PM,57.2,42.8,59,29.81,10.0,NNW,10.4,-,N/A,,Clear,330,2012-10-09 02:15:00
9:35 PM,57.2,42.8,59,29.80,10.0,NNW,6.9,-,N/A,,Clear,340,2012-10-09 02:35:00
9:55 PM,55.4,41.0,58,29.80,10.0,NNW,3.5,-,N/A,,Clear,340,2012-10-09 02:55:00
10:15 PM,55.4,42.8,63,29.80,10.0,South,6.9,-,N/A,,Clear,190,2012-10-09 03:15:00
10:55 PM,55.4,42.8,63,29.81,10.0,WNW,5.8,-,N/A,,Clear,300,2012-10-09 03:55:00
11:15 PM,53.6,42.8,67,29.80,10.0,NW,9.2,-,N/A,,Clear,320,2012-10-09 04:15:00
11:35 PM,55.4,44.6,67,29.82,10.0,WNW,8.1,-,N/A,,Clear,290,2012-10-09 04:35:00
11:55 PM,55.4,42.8,63,29.82,10.0,WNW,5.8,-,N/A,,Clear,300,2012-10-09 04:55:00